Location: Bratislava
(48.1500°N, 17.1170°E)
Time: 11:12:33
(UTC+01:00)

Tiangong 2 - Visible Passes

Search period start: 24 January 2019 00:00
Search period end: 03 February 2019 00:00
Orbit: 380 x 392 km, 42.8° (Epoch: 24 January)

Date Brightness Start Highest point End Pass type
(mag) Time Alt. Az. Time Alt. Az. Time Alt. Az.
24 Jan 3.0 05:12:25 25° SSE 05:12:25 25° SSE 05:14:22 10° ESE visible
24 Jan 3.4 06:45:44 10° WSW 06:47:46 16° SSW 06:49:46 10° SSE visible
25 Jan 2.9 05:48:23 20° SSW 05:48:56 21° SSW 05:51:25 10° SE visible
26 Jan 4.0 04:52:07 14° SE 04:52:07 14° SE 04:52:48 10° SE visible
26 Jan 3.7 06:25:26 10° SW 06:26:11 11° SSW 06:26:57 10° SSW visible
27 Jan 3.5 05:28:08 14° S 05:28:08 14° S 05:29:22 10° SSE visible
